Location: Crescent
(42.8242°N, 73.7329°W)
Time: 20:45:42
(UTC+00:00)

Vanguard 2 Rocket - Pass Details

Date: 15 February 2026
Orbit: 553 x 3287 km, 32.9° (Epoch: 7 March)

Event Time Altitude Azimuth Distance (km) Brightness Sun altitude
Rises 23:18:36 0° 272° (W) 5,409 12.9 -10.1°
Reaches altitude 10° 23:23:38 10° 261° (W) 3,867 11.7 -11.1°
Maximum altitude 23:30:25 23° 215° (SW) 2,291 9.4 -12.3°
Drops below altitude 10° 23:35:07 10° 165° (SSE) 2,572 9.1 -13.1°
Sets 23:37:43 0° 149° (SSE) 3,244 9.5 -13.6°
